Weather in Novy

Russia / Mari El Republic     57°00′11″N   48°44′24″E
temp.,
°C
wind,
m/s
gust,
m/s
humid.,
%
clouds,
%
prec.,
mm/h
press.,
hPa
HPBL,
m
7 march, sun
sun700:00−15sw229780 0.1 101120
03:00−17sw239882 0.1 101020
06:00−16sw339793 0.1 101057
09:00−15sw359790 0.1 1009175
12:00−10ssw469287 0.0 1007407
15:00−8s698793 0.1 1004715
18:00−9sse61292100 0.1 1002553
21:00−9sse71492100 0.6 999675
8 march, mon
mon800:00−8s61293100 0.6 995609
03:00−7sse51194100 1.0 991446
06:00−7se489598 0.4 988307
09:00−5e359699 1.3 988331
12:00−4nnw5696100 2.0 991444
15:00−5wnw6995100 3.8 994714
18:00−6wnw4796100 1.1 998370
21:00−10nw2296100 1.4 100022
9 march, tue
tue900:00−12nnw1197100 0.1 100121
03:00−13nnw3396100 0.3 100262
06:00−15nnw359791 0.1 1004118
09:00−14nnw479586 0.2 1006271
12:00−13nnw4592100 0.0 1008407
15:00−13nw4691100 0.1 1010514
18:00−17nnw3497100 0.1 101183
21:00−18nnw479899 0.1 1013182
10 march, wed
wed1000:00−21n489987 0.1 1014144
03:00−25n469993 0.1 1016126
06:00−28n479888 0.0 1017100
09:00−26n469570 0.0 1019234
12:00−23n469339 0.0 1019325
15:00−21nw479020 0.0 1019397
18:00−23wnw34950 0.0 102034
21:00−24w44973 0.0 102161
11 march, thu
thu1100:00−24w4710058 0.0 1020115
03:00−24wsw4710075 0.0 1020120
06:00−21w5109796 0.1 1018279
09:00−18w6109598 0.2 1018430
12:00−12wnw6990100 0.1 1018639
15:00−10wnw6989100 0.2 1019723
18:00−12wnw499497 0.1 1020165
21:00−12wnw499595 0.1 1022181